Погода в Оглухино

Россия / Омская область     55°51′41″N   71°47′03″E
темп.,
°C
ветер,
м/с
пор.,
м/с
влажн.,
%
обл.,
%
осадки,
мм/ч
давл.,
гПа
погр.,
м
12 апреля, пн
пн1200:00−1юз4109599 0.0 1038189
03:00−1юз4118862 0.0 1036188
06:00−1юз4128875 0.0 1035201
09:00+1зюз51281100 0.0 1034271
12:00+5зюз5979100 0.0 1033293
15:00+7з5979100 0.0 1032418
18:00+5з3793100 0.1 1032124
21:00+3сз3698100 0.0 1034108
13 апреля, вт
вт1300:00+3ссз4995100 0.0 1035137
03:00+1ссз38890 0.0 1037126
06:000ссз34860 0.0 103851
09:00+3сз37740 0.0 1039238
12:00+7зсз47665 0.0 1039822
15:00+9зсз57573 0.0 10391062
18:00+9зсз376137 0.0 1038424
21:00+5з33735 0.0 103835
14 апреля, ср
ср1400:00+4з3677100 0.0 103770
03:00+3зюз478174 0.0 103688
06:00+2зюз41085100 0.0 1035170
09:00+6зюз61378100 0.0 1034408
12:00+10зюз81263100 0.0 1031641
15:00+13з8115625 0.0 1029900
18:00+14з6116397 0.0 1027907
21:00+10зюз498499 0.0 1027160
15 апреля, чт
чт1500:00+9з48905 0.0 1026141
03:00+8з35916 0.0 102570
06:00+7з34925 0.0 102560
09:00+10з47835 0.0 1024234
12:00+15з586323 0.0 1022785
15:00+18з79475 0.0 10201720
18:00+17з59475 0.0 10181510
21:00+12зюз48658 0.0 1018116
16 апреля, пт
пт1600:00+10з49755 0.0 1017134
03:00+9з36815 0.0 101681
06:00+8зюз34855 0.0 101657
09:00+11з35745 0.0 1015201
12:00+16з346060 0.0 1014823
15:00+16сз3361100 0.5 1013927
18:00+14с3372100 2.0 1011277
21:00+10всв5890100 0.8 1010235